Regional Weather Roundup
Issued by NWS Newport/Morehead, NC

Current Version | Previous Version | Graphics & Text | Print | Product List | Glossary Off
Versions: 1 2 3 4 5 6 7 8 9 10 11 12 13 14 15 16 17 18 19 20 21 22 23 24 25 26 27 28 29 30 31 32 33 34 35 36 37 38 39 40 41 42 43 44 45 46 47 48 49 50
443 ASUS42 KMHX 201814 RWRMHX WEATHER ROUNDUP FOR EASTERN NORTH CAROLINA NATIONAL WEATHER SERVICE NEWPORT/MOREHEAD CITY NC 200 PM EDT THU JUL 20 2017 NOTE: "FAIR" INDICATES FEW OR NO CLOUDS BELOW 12,000 FEET WITH NO SIGNIFICANT WEATHER AND/OR OBSTRUCTIONS TO VISIBILITY NCZ015>017-031-032-045>047-102-103-201900- NORTH COAST CITY SKY/WX TMP DP RH WIND PRES REMARKS EDENTON N/A N/A N/A N/A MISG N/A ELIZABETH CITY MOSUNNY 88 77 69 S7 30.03F HX 100 KITTY HAWK PTCLDY 85 71 62 CALM 30.04F MANTEO CLOUDY 85 73 66 SW9 30.06S $$ NCZ045>047-081-094-103-104-201900- CENTRAL COAST CITY SKY/WX TMP DP RH WIND PRES REMARKS FRISCO SUNNY 86 74 67 SW6 30.06F $$ NCZ095-097-098-100-101-201900- SOUTHERN COAST CITY SKY/WX TMP DP RH WIND PRES REMARKS BEAUFORT SUNNY 86 75 69 S9 30.06F CEDAR ISLAND NOT AVBL JACKSONVILLE MOSUNNY 90 74 59 E7 30.05F PINEY ISLAND PTCLDY N/A N/A N/A E7 30.05F WILMINGTON MOSUNNY 88 75 65 SE8 30.06F $$ NCZ011>013-027>030-043-044-078>080-089-090>093-098-201900- COASTAL PLAIN CITY SKY/WX TMP DP RH WIND PRES REMARKS AHOSKIE N/A 89 71 54 S8 30.04F CLINTON MOSUNNY 91 75 58 SW3 30.06F HX 101 ELIZABETHTOWN NOT AVBL GOLDSBORO PTSUNNY 91 71 52 CALM 30.03F GREENVILLE SUNNY 91 68 46 SW6 30.06F HAVELOCK PTSUNNY 89 74 60 S5 30.06F KENANSVILLE PTSUNNY 90 70 51 CALM 30.06F KINSTON MOSUNNY 91 70 49 CALM 30.05F NEW BERN MOSUNNY 88 73 61 E7 30.06F RICHLANDS MOSUNNY 90 72 55 CALM 30.06F ROCKY MOUNT SUNNY 92 68 45 CALM 30.05F WASHINGTON MOSUNNY 88 70 55 CALM 30.05F WHITEVILLE MOSUNNY 90 70 52 SW3 30.06F $$ AMZ130-135-150-152-154-156-158-170-250-252-270-ANZ085-086-088-633-658-670-201900- MARINE OBSERVATIONS STATION/POSITION TIME TEMP WIND PRES WAVE SWELL AIR SEA DIR/SP/G HT/PER HT/PER (UTC) (F) (DEG/KT/KT) (MB) (FT/S) (FT/S) CHESAPEAKE LIGHT NOT AVBL 64 E VA BEACH 1750 80 81 220/ 8/ 10 1017.7 2/15 2/15 DUCK 1736 75 64 150/ 11/ 12 1017.1 2 E DUCK 1800 73 N/A 2/15 2/15 OREGON INLET 1736 84 82 140/ 6/ 8 1017.9 13E OREGON INLT 1748 78 N/A 2/ 8 2/ 8 HATTERAS CG 1736 83 80 170/ 5/ 6 1018.1 DIAMOND BUOY 1750 82 88 210/ 2/ 4 1017.9 3/ 8 2/ 8 CAPE LOOKOUT 1800 82 140/ 6/ 6 1017.7 BEAUFORT LAB 1736 82 81 180/ 8/ 10 1017.5 30 SE NEW RVR IN 1708 80 83 210/ 2/ 6 1018.8 30 SE NEW RVR IN 1743 86 N/A 2/ 7 2/15 27 SE WRIGHTSVLE 1708 81 81 210/ 2/ 4 1018.9 5 SE WRIGHTSVLE 1708 82 82 160/ 6/ 10 1018.5 225 S CAPE HAT 1750 82 84 220/ 14/ 16 1019.5 3/ 8 2/ 8 41 SE CHARLESTON 1750 82 84 200/ 2/ 6 1018.6 2/ 8 2/ 8 $$

USA.gov is the U.S. government's official web portal to all federal, state and local government web resources and services.